Location: Stanford
(52.2833°N, 2.4333°W)
Time: 01:53:22
(UTC+00:00)

Cosmos 1627 Rocket - Pass Details

Date: 22 January 2021
Orbit: 951 x 1003 km, 82.9° (Epoch: 28 February)

Event Time Altitude Azimuth Distance (km) Brightness Sun altitude
Rises 19:14:55 0° 187° (S) 3,635 7.6 -23.4°
Reaches altitude 10° 19:17:24 10° 187° (S) 2,699 6.9 -23.8°
Maximum altitude 19:23:35 89° 103° (ESE) 983 4.4 -24.7°
Drops below altitude 10° 19:29:56 10° 11° (N) 2,754 6.8 -25.7°
Sets 19:32:28 0° 11° (N) 3,714 7.4 -26.1°
